Location: Six Mile Lake
(44.9000°N, 79.7170°W)
Time: 05:01:43
(UTC-04:00)

AO-92 - Pass Details

Date: 30 June 2022
Orbit: 469 x 481 km, 97.4° (Epoch: 09 August)

Event Time Altitude Azimuth Distance (km) Brightness Sun altitude
Exits shadow 22:25:30 13° 108° (ESE) 1,489 ? -10.9°
Maximum altitude 22:27:35 20° 67° (ENE) 1,170 ? -11.1°
Drops below altitude 10° 22:30:14 10° 19° (NNE) 1,668 ? -11.4°
Sets 22:32:42 0° 2° (N) 2,556 ? -11.7°
